Location: Unnamed
(54.5186°N, 36.2255°E)
Time: 16:47:39
(UTC+03:00)

ISS - Pass Details

Date: 22 February 2026
Orbit: 416 x 427 km, 51.6° (Epoch: 5 March)

Event Time Altitude Azimuth Distance (km) Brightness Sun altitude
Exits shadow 05:28:01 44° 170° (S) 586 -3.1 -20.0°
Maximum altitude 05:28:03 44° 169° (SSE) 586 -3.1 -20.0°
Drops below altitude 10° 05:31:16 10° 95° (E) 1,496 0.2 -19.5°
Sets 05:33:24 0° 89° (E) 2,359 1.6 -19.2°
